Weather History for KEMM - July, 2013

Change the Weather History Date:

Wednesday, July 24, 2013

  Actual Average Record
Temperature  
Mean Temperature 70 °F -  
Max Temperature 86 °F 80 °F 89 °F (1952)
Min Temperature 54 °F 45 °F 34 °F (1975)
Cooling Degree Days 5    
Growing Degree Days 20 (Base 50)    
Moisture  
Dew Point 32 °F    
Average Humidity 25    
Maximum Humidity 39    
Minimum Humidity 14    
Precipitation  
Precipitation 0.00 in - - ()
Sea Level Pressure  
Sea Level Pressure 30.26 in    
Wind  
Wind Speed 10 mph (NE)    
Max Wind Speed 18 mph    
Max Gust Speed 25 mph    
Visibility 10 miles    
Events      
Averages and records for this station are not official NWS values.
T = Trace of Precipitation, MM = Missing Value Source: NWS Daily Summary

Daily Weather History Graph

Daily Weather History Graph

Search for Another Location

Airport or City:

Trip Planner

Search our weather history database for the weather conditions in past years. The results will help you decide how hot, cold, wet, or windy it might be!

Date:

Astronomy

Jul. 24, 2013 Rise Set
Actual Time 6:08 AM MDT 8:48 PM MDT
Civil Twilight 5:36 AM MDT 9:20 PM MDT
Nautical Twilight 4:56 AM MDT 10:00 PM MDT
Astronomical Twilight 4:09 AM MDT 10:46 PM MDT
Moon 9:52 PM MDT (7/24) 8:35 AM MDT (7/24)
Length of Visible Light 15h 43m
Length of Day
14h 39m
Waning Gibbous, 94% of the Moon is Illuminated
Jul 24
Waning Gibbous
Jul 29
Last Quarter
Aug 6
New
Aug 14
First Quarter
Aug 20
Full

Hourly Weather History & Observations

Time (MDT) Temp. Dew Point Humidity Pressure Visibility Wind Dir Wind Speed Gust Speed Precip Events Conditions
12:15 AM 63.5 °F 23.2 °F 21% 30.30 in 10.0 mi North 12.7 mph - N/A   Clear
12:35 AM 62.6 °F 23.5 °F 23% 30.30 in 10.0 mi North 12.7 mph - N/A   Clear
12:55 AM 61.3 °F 24.8 °F 25% 30.30 in 10.0 mi North 11.5 mph - N/A   Clear
1:15 AM 60.8 °F 24.8 °F 25% 30.30 in 10.0 mi North 9.2 mph - N/A   Clear
1:35 AM 59.7 °F 25.0 °F 26% 30.30 in 10.0 mi NNW 8.1 mph - N/A   Clear
1:55 AM 57.9 °F 24.3 °F 27% 30.30 in 10.0 mi North 10.4 mph - N/A   Clear
2:15 AM 57.4 °F 23.9 °F 28% 30.30 in 10.0 mi North 10.4 mph - N/A   Clear
2:35 AM 56.7 °F 24.8 °F 29% 30.29 in 10.0 mi North 11.5 mph - N/A   Clear
2:55 AM 55.2 °F 25.0 °F 31% 30.29 in 10.0 mi North 11.5 mph - N/A   Clear
3:15 AM 54.3 °F 25.2 °F 32% 30.29 in 10.0 mi North 11.5 mph - N/A   Clear
3:35 AM 55.0 °F 24.6 °F 31% 30.29 in 10.0 mi North 12.7 mph - N/A   Clear
3:55 AM 55.0 °F 24.4 °F 31% 30.29 in 10.0 mi North 12.7 mph - N/A   Clear
4:15 AM 54.3 °F 24.8 °F 32% 30.28 in 10.0 mi North 15.0 mph - N/A   Clear
4:35 AM 54.1 °F 24.4 °F 32% 30.28 in 10.0 mi North 12.7 mph - N/A   Clear
4:55 AM 54.9 °F 24.8 °F 31% 30.28 in 10.0 mi North 12.7 mph - N/A   Clear
5:15 AM 55.8 °F 25.5 °F 31% 30.29 in 10.0 mi North 11.5 mph - N/A   Clear
5:35 AM 57.2 °F 26.4 °F 31% 30.29 in 10.0 mi North 11.5 mph - N/A   Clear
5:55 AM 59.7 °F 28.0 °F 30% 30.29 in 10.0 mi NNE 11.5 mph 16.1 mph N/A   Clear
6:15 AM 61.2 °F 29.8 °F 31% 30.29 in 10.0 mi NNE 11.5 mph 19.6 mph N/A   Clear
6:35 AM 61.3 °F 30.2 °F 31% 30.30 in 10.0 mi North 8.1 mph - N/A   Clear
6:55 AM 62.4 °F 30.4 °F 30% 30.30 in 10.0 mi NNE 10.4 mph - N/A   Clear
7:15 AM 63.7 °F 31.1 °F 29% 30.30 in 10.0 mi North 10.4 mph - N/A   Clear
7:35 AM 64.2 °F 31.6 °F 30% 30.30 in 10.0 mi NE 11.5 mph - N/A   Clear
7:55 AM 65.1 °F 32.0 °F 29% 30.30 in 10.0 mi NNE 6.9 mph - N/A   Clear
8:15 AM 68.4 °F 33.3 °F 27% 30.32 in 10.0 mi NE 9.2 mph - N/A   Clear
8:35 AM 69.6 °F 34.2 °F 27% 30.32 in 10.0 mi NE 4.6 mph - N/A   Clear
8:55 AM 69.4 °F 34.5 °F 28% 30.32 in 10.0 mi East 5.8 mph - N/A   Clear
9:15 AM 70.7 °F 33.4 °F 25% 30.32 in 10.0 mi ESE 4.6 mph - N/A   Clear
9:35 AM 72.0 °F 33.6 °F 24% 30.32 in 10.0 mi East 4.6 mph - N/A   Clear
9:55 AM 72.7 °F 33.8 °F 24% 30.32 in 10.0 mi East 5.8 mph - N/A   Clear
10:15 AM 73.9 °F 34.0 °F 23% 30.32 in 10.0 mi Calm Calm - N/A   Clear
10:35 AM 76.8 °F 35.8 °F 23% 30.31 in 10.0 mi East 5.8 mph - N/A   Clear
10:55 AM 77.9 °F 37.4 °F 23% 30.30 in 10.0 mi ESE 6.9 mph - N/A   Clear
11:15 AM 77.9 °F 38.1 °F 24% 30.30 in 10.0 mi ESE 9.2 mph - N/A   Clear
11:35 AM 78.4 °F 38.1 °F 23% 30.30 in 10.0 mi SE 5.8 mph - N/A   Clear
11:55 AM 79.2 °F 38.3 °F 23% 30.29 in 10.0 mi East 6.9 mph - N/A   Clear
12:15 PM 81.0 °F 37.6 °F 21% 30.29 in 10.0 mi SE 5.8 mph - N/A   Clear
12:35 PM 81.9 °F 35.1 °F 19% 30.28 in 10.0 mi Calm Calm - N/A   Clear
12:55 PM 82.0 °F 32.5 °F 17% 30.27 in 10.0 mi North 3.5 mph - N/A   Clear
1:15 PM 82.8 °F 30.9 °F 15% 30.27 in 10.0 mi NE 6.9 mph - N/A   Clear
1:35 PM 84.6 °F 30.9 °F 14% 30.26 in 10.0 mi Calm Calm - N/A   Clear
1:55 PM 86.0 °F 30.6 °F 14% 30.26 in 10.0 mi SE 5.8 mph - N/A   Clear
2:15 PM 86.2 °F 31.6 °F 14% 30.25 in 10.0 mi East 4.6 mph - N/A   Clear
2:35 PM 86.7 °F 31.6 °F 14% 30.24 in 10.0 mi East 4.6 mph - N/A   Scattered Clouds
2:55 PM 84.2 °F 31.1 °F 15% 30.24 in 10.0 mi SW 5.8 mph 18.4 mph N/A   Mostly Cloudy
3:15 PM 82.9 °F 30.7 °F 15% 30.23 in 10.0 mi Calm Calm - N/A   Mostly Cloudy
3:35 PM 85.6 °F 30.9 °F 14% 30.22 in 10.0 mi ENE 10.4 mph 17.3 mph N/A   Mostly Cloudy
3:55 PM - - N/A% 30.22 in 10.0 mi East 6.9 mph - N/A   Overcast
4:15 PM - - N/A% 30.22 in 10.0 mi East 9.2 mph - N/A   Scattered Clouds
4:35 PM 82.2 °F 31.5 °F 16% 30.21 in 10.0 mi East 11.5 mph - N/A   Clear
4:55 PM 83.7 °F 30.4 °F 15% 30.21 in 10.0 mi ENE 9.2 mph - N/A   Scattered Clouds
5:15 PM 82.6 °F 28.9 °F 14% 30.21 in 10.0 mi East 3.5 mph - N/A   Scattered Clouds
5:35 PM 81.5 °F 28.0 °F 14% 30.21 in 10.0 mi East 6.9 mph - N/A   Scattered Clouds
5:55 PM 80.8 °F 34.0 °F 18% 30.21 in 10.0 mi South 17.3 mph 25.3 mph N/A   Scattered Clouds
6:15 PM 79.5 °F 37.9 °F 22% 30.20 in 10.0 mi South 15.0 mph 25.3 mph N/A   Scattered Clouds
6:35 PM 79.5 °F 37.2 °F 22% 30.20 in 10.0 mi South 18.4 mph 25.3 mph N/A   Clear
6:55 PM 80.1 °F 36.3 °F 21% 30.19 in 10.0 mi South 9.2 mph 21.9 mph N/A   Clear
7:15 PM 79.2 °F 35.6 °F 21% 30.19 in 10.0 mi South 11.5 mph - N/A   Clear
7:35 PM 79.2 °F 33.4 °F 19% 30.20 in 10.0 mi South 4.6 mph - N/A   Clear
7:55 PM 78.1 °F 34.2 °F 20% 30.20 in 10.0 mi North 5.8 mph - N/A   Clear
8:15 PM 75.6 °F 34.7 °F 23% 30.20 in 10.0 mi NNW 3.5 mph - N/A   Clear
8:35 PM 73.2 °F 37.2 °F 27% 30.20 in 10.0 mi NNW 11.5 mph - N/A   Clear
8:55 PM 71.6 °F 37.6 °F 29% 30.20 in 10.0 mi North 15.0 mph - N/A   Clear
9:15 PM 70.9 °F 37.2 °F 29% 30.20 in 10.0 mi North 12.7 mph - N/A   Clear
9:35 PM 68.9 °F 36.7 °F 31% 30.22 in 10.0 mi NNE 11.5 mph - N/A   Clear
9:55 PM 67.5 °F 36.7 °F 32% 30.24 in 10.0 mi North 6.9 mph - N/A   Clear
10:15 PM 67.1 °F 36.1 °F 32% 30.24 in 10.0 mi NNW 4.6 mph - N/A   Clear
10:35 PM 65.8 °F 37.4 °F 35% 30.24 in 10.0 mi ENE 9.2 mph - N/A   Clear
10:55 PM 66.6 °F 38.3 °F 35% 30.25 in 10.0 mi North 5.8 mph - N/A   Clear
11:15 PM 64.8 °F 38.7 °F 38% 30.25 in 10.0 mi North 11.5 mph - N/A   Clear
11:35 PM 64.4 °F 38.7 °F 39% 30.25 in 10.0 mi NNE 12.7 mph - N/A   Clear
11:55 PM 64.4 °F 38.7 °F 39% 30.25 in 10.0 mi NNE 6.9 mph - N/A   Clear